Flag for Germany Weather past 2 weeks in Friesoythe, Lower Saxony, Germany

Now
37 °F

Passing clouds.


Feels Like: 32 °F
Forecast: 35 / 42 °F
Wind: 7 mph from West

Location: Meppen-Mil

Current Time: Jan 27, 2015 at 11:39:15 AM

Latest Report: Jan 27, 2015 at 10:20 AM


Visibility: N/A

Pressure: 30.12 "Hg

Humidity: 93%

Dew point: 36 °F

Location of FriesoytheLocation

Historic Weather in Friesoythe — Graph

°F

Friesoythe temperature yesterday

Maximum temperature yesterday: 43 °F (at 4:20 PM)
Minimum temperature yesterday: 37 °F (at 12:20 AM)
Average temperature yesterday: 39 °F

Past Weeks' High & Low Weather Summary

 TemperatureHumidityPressure
High50 °F (Jan 12, 6:20 PM)100% (Jan 17, 5:20 AM)30.33 "Hg (Jan 17, 5:20 AM)
Low23 °F (Jan 21, 8:20 AM)62% (Jan 15, 11:20 PM)29.33 "Hg (Jan 15, 2:20 PM)
Average36 °F88%29.90 "Hg
* Reported Jan 12 10:20 AM — Jan 27 10:20 AM, Friesoythe, Weather by CustomWeather, © 2014

Note: Actual official high and low records may vary slightly from our data, if they occured in-between our weather recording intervals... More about our weather records

Advertising

Friesoythe weather history for previous 24 hours

 ConditionsComfort  
Time TempWeatherWind HumidityBarometerVisibility
10:20 AM
Jan 27
37 °FPassing clouds.7 mph93%30.12 "HgN/A
9:20 AM34 °FPassing clouds.5 mph93%30.09 "HgN/A
8:20 AM36 °FPassing clouds.6 mph87%30.09 "HgN/A
7:20 AM36 °FPassing clouds.7 mph93%30.07 "HgN/A
6:20 AM36 °FSprinkles. Partly cloudy.7 mph93%30.07 "Hg6 mi
5:20 AM36 °FChilly.7 mph93%30.07 "Hg5 mi
4:20 AM36 °FChilly.7 mph93%30.09 "Hg4 mi
3:20 AM36 °FChilly.8 mph93%30.07 "HgN/A
2:20 AM36 °FChilly.7 mph93%30.07 "Hg5 mi
1:20 AM37 °FChilly.8 mph87%30.07 "Hg4 mi
12:20 AM37 °FChilly.7 mph87%30.07 "Hg6 mi
11:20 PM
Jan 26
37 °FChilly.6 mph93%30.04 "Hg3 mi
10:20 PM37 °FChilly.7 mph93%30.04 "Hg6 mi
9:20 PM39 °FChilly.7 mph87%30.01 "Hg3 mi
8:20 PM39 °FChilly.7 mph87%30.01 "Hg4 mi
7:20 PM39 °FChilly.7 mph87%30.01 "Hg4 mi
6:20 PM41 °FQuite cool.8 mph87%29.98 "Hg4 mi
5:20 PM43 °FQuite cool.7 mph93%29.98 "Hg5 mi
4:20 PM43 °FLight rain. Fog.7 mph93%29.95 "Hg2 mi
3:20 PM41 °FDrizzle. Fog.9 mph100%29.95 "Hg1 mi
2:20 PM41 °FDrizzle. Fog.9 mph93%29.95 "Hg1 mi
1:20 PM39 °FDrizzle. Fog.9 mph100%29.98 "Hg1 mi
12:20 PM39 °FDrizzle. Fog.10 mph93%30.01 "Hg1 mi
11:20 AM39 °FDrizzle. Fog.10 mph93%30.04 "Hg1 mi
Weather by CustomWeather, © 2014

See weather overviewHow to use our weather pages